www.pogodaiklimat.ru

Погода и климат >> Архив погоды >> Россия >> Нижегородская область >> Арзамас


ПОГОДА в Арзамасе

АРХИВ ПОГОДЫ в Арзамасе

Время (UTC), дата Ветер
(напр.,м/с)
 
Видим.   Явления Облачность Т
(С)
Тd
(С)
f
(%)
Тe
(С)
Тes
(С)
Комфортность P
(гПа)
Po
(гПа)
Тmin
(С)
Tmax
(С)
R
(мм)
R24
(мм)
S
(см)
09 13.09 ЮЗ 8-12
{14}
20 км 9/0
[Ac cast]
+24.6 +11.5 44 +26 +27 жарко 1012.1 997.9
12 13.09 З 5-10
{15}
20 км 10/6 300 м
[Sc Ac und]
+21.6 +12.4 56 +24 +24 комфорт 1013.7 999.4
15 13.09 З 5-9
{10}
20 км 3/3 300 м
[Sc diur, vesp]
+20.5 +9.9 51 +22 +22 комфорт 1014.1 999.7 +24.7
18 13.09 штиль 0
{7}
4000 м ясно +8.8 +7.3 90 +8 +8 по сезону 1016.4 1001.4
21 13.09 штиль 0
{2}
4000 м ясно +5.3 +4.6 95 +4 +4 прохладно 1018.4 1003.1
00 14.09 штиль 0
{1}
4000 м туман поземный ясно +2.8 +2.0 94 +2 +2 прохладно 1019.5 1004.1
03 14.09 штиль 0
{1}
20 км туман поземный 3/0
[Ac trans]
+0.8 +0.3 96 -1 -1 очень
холодно
1021.1 1005.4 +0.5
06 14.09 штиль 0
{2}
20 км 4/0
[Ac cast Ci fib]
+11.6 +7.3 75 +11 +15 тепло 1021.6 1006.6
09 14.09 З 2-3
{5}
20 км 8/0
[Ac cast Ci]
+19.4 +5.0 39 +20 +26 тепло 1021.0 1006.4
12 14.09 СЗ 2-4
{6}
20 км 8/0
[Ci]
+19.8 +4.5 36 +21 +24 комфорт 1020.4 1005.8
15 14.09 С 1-2
{4}
20 км 6/0
[Ci]
+18.5 +5.9 44 +20 +20 тепло 1020.3 1005.7 +20.9
18 14.09 штиль 0
{3}
4000 м ясно +9.4 +6.7 83 +9 +9 по сезону 1021.5 1006.4
21 14.09 В 1-1
{2}
4000 м ясно +4.5 +3.8 95 +3 +3 прохладно 1021.7 1006.4
00 15.09 СВ 1-2
{3}
4000 м дымка ясно +3.8 +3.3 97 +2 +2 прохладно 1022.0 1006.6
03 15.09 штиль 0
{1}
4000 м дымка 4/0
[Ac trans Ci fib]
+2.7 +2.2 97 +1 +1 холодно 1021.9 1006.5 +2.6
06 15.09 В 1-2
{3}
20 км 9/0
[Ac As]
+12.4 +7.4 72 +13 +14 тепло 1021.2 1006.3
09 15.09 В 3-5
{5}
20 км 8/3 300 м
[Sc Ac cast]
+21.0 +6.4 39 +22 +25 комфорт 1020.1 1005.6
12 15.09 ЮВ 2-4
{6}
20 км 6/0
[Ac lent Ci sp]
+23.4 +2.1 25 +23 +26 комфорт 1019.3 1005.0
15 15.09 В 2-3
{5}
20 км 1/0
[Ac cast]
+20.0 +6.5 41 +21 +21 комфорт 1018.8 1004.3 +23.6
18 15.09 В 2-4
{4}
4000 м ясно +13.6 +5.6 58 +13 +13 тепло 1019.2 1004.3
21 15.09 В 2-3
{4}
4000 м ясно +12.9 +5.1 59 +12 +12 тепло 1018.4 1003.5
00 16.09 В 1-2
{4}
4000 м ясно +13.6 +6.2 61 +14 +14 тепло 1016.6 1001.8
03 16.09 В 2-3
{4}
20 км 4/0
[Ci]
+11.8 +6.8 71 +11 +11 тепло 1015.5 1000.6 +11.8
06 16.09 ЮВ 1-6
{6}
20 км 6/0
[Cs]
+17.5 +8.4 55 +19 +22 тепло 1013.4 998.8 +11.7
09 16.09 Ю 3-5
{6}
20 км 10/0
[As op]
+23.6 +6.5 33 +24 +25 комфорт 1011.5 997.2
12 16.09 В 2-4
{7}
20 км 10/0
[As op]
+24.3 +6.2 31 +24 +25 комфорт 1009.2 995.0
15 16.09 ЮВ 2-3
{7}
20 км 10/3 300 м
[Sc As op]
+22.2 +5.5 34 +23 +23 комфорт 1008.2 993.9 +24.8
18 16.09 штиль 0
{3}
4000 м 10/0
[As op]
+15.6 +7.4 58 +16 +16 тепло 1007.8 993.1
21 16.09 СВ 1-1
{2}
4000 м 10/0
[As op]
+11.6 +8.4 81 +11 +11 тепло 1007.0 992.2
00 17.09 СЗ 1-2
{2}
4000 м 8/0
[Ac As]
+12.2 +9.4 83 +12 +12 тепло 1006.5 991.8
03 17.09 С 4-7
{9}
20 км 10/10 300 м
[Sc]
+14.4 +11.7 84 +13 +13 тепло 1006.3 991.7 +10.0
06 17.09 СЗ 4-7
{9}
20 км слабый дождь {морось} 10/0
[As op]
+12.8 +11.3 91 +11 +11 тепло 1009.4 994.6
09 17.09 С 3-5
{9}
20 км {дождь} 10/10 300 м
[Frnb]
+14.0 +9.5 74 +13 +13 тепло 1012.0 997.3
12 17.09 СЗ 5-9
{11}
20 км {дождь} 10/0
[Ci fib]
+17.1 +3.2 39 +16 +18 тепло 1013.4 998.8
15 17.09 С 2-4
{9}
20 км 10/0
[Ci fib]
+14.7 +3.4 47 +15 +15 тепло 1015.1 1000.4 +17.1 0.3
18 17.09 З 1-1
{4}
4000 м ясно +5.2 +3.8 91 +4 +4 прохладно 1017.2 1001.9
21 17.09 штиль 0
{1}
4000 м ясно +1.7 +0.9 94 0 0 холодно 1017.3 1001.8
00 18.09 СВ 1-1
{1}
4000 м ясно -0.8 -1.4 96 -3 -3 очень
холодно
1016.9 1001.3
03 18.09 штиль 0
{1}
20 км туман поземный 3/0
[Ac trans Ci fib]
-1.6 -2.2 96 -3 -3 очень
холодно
1016.2 1000.5 -1.8
06 18.09 Ю 2-4
{4}
20 км 10/0
[Ac und]
+7.8 +4.6 80 +6 +7 по сезону 1014.1 999.0
09 18.09 ЮЗ 3-5
{8}
20 км 10/6 300 м
[Sc Ac und]
+11.7 +6.8 72 +10 +11 по сезону 1012.2 997.3
12 18.09 З 4-6
{8}
20 км {дождь} 10/6 300 м
[Sc Ac und]
+11.6 +8.8 83 +9 +10 прохладно 1010.9 996.0
15 18.09 ЮЗ 3-5
{8}
20 км 9/6 300 м
[Sc diur, vesp Ac As]
+12.6 +9.3 80 +11 +11 по сезону 1010.2 995.4 +13.1 0.3
18 18.09 З 2-4
{6}
4000 м {дождь} 10/6 300 м
[Sc Ac und]
+11.4 +9.7 89 +10 +10 по сезону 1010.9 996.0
21 18.09 З 1-3
{7}
4000 м 3/0
[Ac trans]
+8.6 +6.4 86 +8 +8 по сезону 1011.7 996.7
00 19.09 СЗ 1-2
{6}
4000 м ясно +8.6 +5.0 78 +8 +8 по сезону 1012.3 997.3
03 19.09 З 1-3
{3}
20 км 3/0
[Ac trans Ci sp]
+6.2 +4.6 89 +5 +5 по сезону 1013.3 998.2 +5.2 1
06 19.09 З 4-7
{7}
20 км 3/0
[Ci sp]
+11.2 +5.8 69 +9 +11 по сезону 1013.8 998.9
09 19.09 СЗ 5-8
{10}
20 км 8/3 300 м
[Sc diur, vesp Cc]
+15.1 +3.4 45 +14 +16 тепло 1013.3 998.6
12 19.09 З 3-7
{11}
20 км 10/10 300 м
[Sc]
+14.9 +5.6 54 +14 +14 тепло 1013.1 998.4
15 19.09 З 4-5
{7}
20 км 8/8 300 м
[Sc]
+13.0 +8.1 72 +11 +11 по сезону 1013.3 998.5 +15.7
18 19.09 З 1-3
{7}
4000 м 10/10 300 м
[St]
+11.6 +9.0 84 +11 +11 тепло 1013.9 999.0
21 19.09 штиль 0
{4}
4000 м 10/0
[As op]
+11.3 +9.3 87 +11 +11 тепло 1013.3 998.4
00 20.09 З 1-2
{3}
4000 м 10/10 300 м
[St]
+11.4 +9.7 89 +11 +11 тепло 1013.3 998.4
03 20.09 ЮЗ 2-4
{4}
20 км 10/10 300 м
[St]
+11.1 +9.7 91 +10 +10 тепло 1013.0 998.1 +11.1

 

Местоположение метеостанции Арзамас (Нижегородская область, Россия): широта 55.37 долгота 43.78 высота над уровнем моря 124 м.

В архиве по умолчанию представлена погода в Арзамасе за последнюю неделю. Архивные данные за месяц целиком и за предыдущие месяцы, начиная с января 2011 года, Вы можете получить, выбрав интересующий диапазон дат из раскрывающегося списка и нажав кнопку "Ввод!".


*Определитесь, кто Вы:
робот инопланетянин человек

Внимание! Время в таблицах - всемирное. Для получения местного времени необходимо прибавить поправку, которая в Арзамасе равна 3 ч.

Смотрите также архив погоды в соседних городах и на ближайших метеорологических станциях:

Погода в Дальнем Константиново (Нижегородская область, Россия) (51 км)
Погода в Лукоянове (Нижегородская область, Россия) (59 км)
Погода в Павлово (Нижегородская область, Россия) (80 км)
Погода в Темникове (Мордовия, Россия) (89 км)
Погода в Нижнем Новгороде аэропорт (Нижегородская область, Россия) (95 км)
Погода в Нижнем Новгороде (Нижегородская область, Россия) (101 км)
Погода в Краснослободске (Мордовия, Россия) (105 км)
Погода в Выксе (Нижегородская область, Россия) (105 км)
Погода в Большом Болдино (Нижегородская область, Россия) (105 км)
Погода в Лысково (Нижегородская область, Россия) (106 км)

Пояснения к столбцам:

Ветер - указаны скорость ветра в м/с - средняя за 10 мин, порывы в срок и между сроками (в фигурных скобках) и направление, откуда дует ветер: С - северный, СВ - северо-восточный, В - восточный, ЮВ - юго-восточный, Ю - южный, ЮЗ - юго-западный, З - западный, СЗ - северо-западный.
Видимость - горизонтальная дальность видимости в метрах или километрах. При видимости от 1 до 10 км при отсутствии осадков обычно наблюдается дымка, при ухудшении видимости до 1 км и менее - туман. В сухую погоду видимость может ухудшаться дымом, пылью или мглою.
Явления - указаны атмосферные явления, наблюдавшиеся в срок или в последний час перед сроком; фигурными скобками обозначены явления, наблюдавшиеся между сроками (за 1-3 часа до срока); квадратными скобками обозначены град или гололедные отложения с указанием их диаметра в мм.
Облачность - указаны через наклонную черту общая и нижняя облачность в баллах и высота нижней границы облаков в метрах; квадратными скобками обозначены формы облаков: Ci - перистые, Cs - перисто-слоистые, Cc - перисто-кучевые, Ac - высококучевые, As - высокослоистые, Sc - слоисто-кучевые, Ns - слоисто-дождевые, Cu - кучевые, Cb - кучево-дождевые. Подробнее классификацию облаков см. в Атласе облаков (PDF).
T - Температура воздуха - температура, измеренная на высоте 2 м над землей.
Td - Температура точки росы - температура, при понижении до которой содержащийся в воздухе водяной пар достигнет насыщения.
f - Относительная влажность воздуха - влажноcть воздуха, измеренная на высоте 2 м над землей.
Te - Эффективная температура - температура, которую ощущает одетый по сезону человек в тени. Характеристика душности погоды. При расчете учитывается влияние влажности воздуха и скорости ветра на теплоощущения человека.
Tes - Эффективная температура на солнце - температура, которую ощущает человек, с поправкой на солнечный нагрев. Характеристика знойности погоды. Зависит от высоты солнца над горизонтом, облачности и скорости ветра. Ночью, в пасмурную погоду, а также при ветре 12 м/с и более поправка равна нулю.
P - Атмосферное давление - приведенное к уровню моря атмосферное давление.
Po - Атмосферное давление - измеренное на уровне метеостанции атмосферное давление.
Tmin - Минимальная температура - минимум температуры воздуха на высоте 2 м над землей.
Tmax - Максимальная температура - максимум температуры воздуха на высоте 2 м над землей.
R - Количество осадков - Количество выпавших осадков за период времени, мм. При наведении курсора мыши на число - период времени, за который выпало указанное количество осадков.
R24 - Количество осадков - Количество выпавших осадков за 24 часа, мм.
S - Снежный покров - Высота снежного покрова, см. При наведении курсора мыши на число - состояние снежного покрова и степень покрытия местности в баллах.